Hourly Data Report for July 08, 2016

TORONTO CITY
ONTARIO

43°40'00.000" N
79°24'00.000" W
112.50 m
6158355
71508
XTO

Download Data

Hourly Data (July 2016)
Hourly Data Report for July 8, 2016
TIME
LST
Temp Definition
°C
Dew Point Definition
°C
Rel Hum Definition
%
Precip. Amount Definition
mm

Wind Dir Definition
10's deg

Wind Spd Definition
km/h
Visibility Definition
km
Stn Press Definition
kPa
Hmdx Definition


Wind Chill Definition


Weather Definition


00:00 23.9 17.4 67 0.0 LegendMM LegendMM   99.60 29   LegendNANA
01:00 23.9 17.6 68 0.0 LegendMM LegendMM   99.57 30   LegendNANA
02:00 23.0 17.7 72 0.0 LegendMM LegendMM   99.56 29   LegendNANA
03:00 22.7 17.7 74 0.0 LegendMM LegendMM   99.51 28   LegendNANA
04:00 22.4 17.8 75 0.0 LegendMM LegendMM   99.50 28   LegendNANA
05:00 22.4 18.0 76 0.0 LegendMM LegendMM   99.54 28   LegendNANA
06:00 22.6 18.4 77 0.0 LegendMM LegendMM   99.52 29   LegendNANA
07:00 21.5 18.4 82 0.5 LegendMM LegendMM   99.55 28   LegendNANA
08:00 21.5 18.3 82 0.0 LegendMM LegendMM   99.56 28   LegendNANA
09:00 22.8 19.3 81 0.0 LegendMM LegendMM   99.51 30   LegendNANA
10:00 22.4 19.6 84 0.0 LegendMM LegendMM   99.59 30   LegendNANA
11:00 23.7 19.3 77 0.0 LegendMM LegendMM   99.62 31   LegendNANA
12:00 25.5 19.1 68 0.0 LegendMM LegendMM   99.59 32   LegendNANA
13:00 26.6 19.9 67 0.0 LegendMM LegendMM   99.52 34   LegendNANA
14:00 27.8 19.1 59 0.0 LegendMM LegendMM   99.46 35   LegendNANA
15:00 24.3 19.0 72 0.0 LegendMM LegendMM   99.46 31   LegendNANA
16:00 25.3 19.4 70 0.0 LegendMM LegendMM   99.40 32   LegendNANA
17:00 24.8 19.0 70 0.0 LegendMM LegendMM   99.34 32   LegendNANA
18:00 24.4 19.3 73 0.0 LegendMM LegendMM   99.34 31   LegendNANA
19:00 22.4 19.5 84 0.0 LegendMM LegendMM   99.23 30   LegendNANA
20:00 22.8 19.1 80 0.0 LegendMM LegendMM   99.31 30   LegendNANA
21:00 22.3 20.1 87 0.0 LegendMM LegendMM   99.30 30   LegendNANA
22:00 22.1 19.9 88 0.2 LegendMM LegendMM   99.29 30   LegendNANA
23:00 22.1 17.7 77 0.0 LegendMM LegendMM   99.26 28   LegendNANA

Notes on Data Quality.

Legend

  • E = Estimated
  • M = Missing
  • NA = Not Available*
  • [empty] = Indicates an unobserved value
Date modified: